Location: Quedlinburg
(51.7921°N, 11.1414°E)
Time: 00:30:57
(UTC+01:00)

MOZHAYETS 4 - Visible Passes

Search period start: 14 March 2026 00:00
Search period end: 24 March 2026 00:00
Orbit: 643 x 658 km, 98.3° (Epoch: 13 March)

Date Brightness Start Highest point End Pass type
(mag) Time Alt. Az. Time Alt. Az. Time Alt. Az.
14 Mar 9.5 04:09:22 10° SE 04:13:25 33° ENE 04:17:29 10° N visible
14 Mar 8.2 05:45:54 10° SSW 05:50:04 36° W 05:54:16 10° NNW visible
14 Mar 9.3 19:08:27 10° N 19:12:39 39° WNW 19:16:48 10° SW visible
15 Mar 11.1 03:03:34 10° ENE 03:04:15 10° NE 03:04:57 10° NE visible
15 Mar 8.4 04:35:34 10° SE 04:39:59 55° ENE 04:44:26 10° N visible
15 Mar 10.2 19:35:31 10° N 19:39:09 24° WNW 19:42:45 10° WSW visible
16 Mar 10.7 03:27:49 10° E 03:30:34 16° NE 03:33:19 10° NNE visible
16 Mar 7.6 05:02:07 10° SSE 05:06:38 88° WSW 05:11:12 10° NNW visible
16 Mar 10.7 20:02:51 10° NNW 20:05:33 16° NW 20:08:14 10° W visible
17 Mar 10.0 03:53:19 10° ESE 03:56:58 25° ENE 04:00:38 10° N visible
17 Mar 7.8 05:28:59 10° S 05:33:23 51° W 05:37:50 10° NNW visible
17 Mar 8.6 18:51:44 10° N 18:56:08 54° WNW 19:00:29 10° SW visible
17 Mar 11.3 20:31:26 10° NW 20:31:51 10° NW 20:32:16 10° NW visible
18 Mar 9.1 04:19:16 10° SE 04:23:28 39° ENE 04:27:41 10° N visible
18 Mar 9.7 19:18:40 10° N 19:22:40 33° WNW 19:26:39 10° SW visible
19 Mar 11.0 03:12:27 10° ENE 03:14:12 12° NE 03:15:57 10° NNE visible
19 Mar 8.1 04:45:35 10° SSE 04:50:03 66° ENE 04:54:34 10° N visible
19 Mar 10.5 19:45:47 10° N 19:49:08 21° WNW 19:52:28 10° WSW visible
20 Mar 10.5 03:37:25 10° E 03:40:33 19° ENE 03:43:40 10° NNE visible
20 Mar 7.6 05:12:13 10° S 05:16:44 73° WSW 05:21:17 10° NNW visible
20 Mar 10.9 20:13:17 10° NNW 20:15:29 14° NW 20:17:41 10° W visible
21 Mar 9.8 04:03:05 10° ESE 04:06:58 29° ENE 04:10:51 10° N visible
21 Mar 8.1 05:39:13 10° S 05:43:31 42° W 05:47:50 10° NNW visible
21 Mar 9.0 19:01:52 10° N 19:06:09 45° WNW 19:10:24 10° SW visible
22 Mar 8.8 04:29:10 10° SE 04:33:30 47° ENE 04:37:50 10° N visible
22 Mar 10.0 19:28:51 10° N 19:32:39 28° WNW 19:36:26 10° WSW visible
23 Mar 10.9 03:21:46 10° E 03:24:08 14° NE 03:26:29 10° NNE visible
23 Mar 7.8 04:55:35 10° SSE 05:00:06 80° ENE 05:04:38 10° NNW visible
23 Mar 10.7 19:56:04 10° NNW 19:59:04 18° WNW 20:02:04 10° W visible
